Aérodrome :
LOGIN :

S'inscrire | Disclaimer

   EN    FR    IT 

 










Légende :    VFR   VFR Marginal   IFR   IFR Intensif   IFR Très Intensif
Visi : 
Plafond : 
>= 8 km
>= 3000ft
5 à 8 km
1000 à 3000 ft
1500m à 5 km
500 à 1000 ft
800 à 1500m
200 à 500 ft
< 800m
< 200 ft
Symboles :   Orages  Brouillard  Fortes neiges  Fortes précipitations  Vent > 20 kt
SIGMETs :   Divers  Orages  Givrage  Turbulence  Onde Orograph.  Cendres Volcan.






- Altitude de l'aérodrome : 870 ft
- Code IATA : ETZ


LFJL - Metz Nancy Lorraine

DERNIER METAR :
  • 230100Z AUTO 03005KT CAVOK 03/M02 Q1025 NOSIG

METARs EXPIRÉS :
  • 230030Z AUTO 03006KT CAVOK 05/M01 Q1025 NOSIG
  • 230000Z AUTO 02004KT CAVOK 05/M02 Q1025 NOSIG
  • 222330Z AUTO 03005KT CAVOK 05/M01 Q1025 NOSIG
  • 222300Z AUTO 02007KT CAVOK 06/M02 Q1025 NOSIG
  • 222230Z AUTO 05009KT CAVOK 06/M01 Q1025 NOSIG

TAF TAF LFJL
Valide du 23 à 00h jusqu'au 24 à 00h UTC


222300Z 2300/2324 04006KT CAVOK



MET'MAP, la Météo Aéronautique d'un coup d'oeil ! - Copyright ORBIFLY Décembre 2007 - Disclaimer

ORBIFLY MET'MAP TEAM :

Programmation & Développement : Alexandra Zaïnal
Sur une idée originale de : Baudouin d'Aumeries
Assistance à la programmation : Marc-Olivier Méhu
Soutien technique & logistique : Manuel Goepfert

Contact : metmap@orbifly.com




SOURCES & CREDITS :

   NOAA